Theta_e
329 328 329 329 329 327 328 328 323 323 325 324 328 332 335 337 338 336 333 333 334 333 332 332 333 333 329 322 322 329 331 332 333 329 326 327 326 324 324 323 322 322 322 319 316 319 325 328 329 332 332 332 332 331 330 331 329 326 321 315 311 311
330 331 331 330 329 326 327 326 322 322 324 326 331 334 336 337 337 335 333 333 333 333 332 331 331 332 331 323 320 327 331 332 332 328 326 328 327 326 325 325 324 325 326 325 321 319 322 325 327 329 331 333 332 329 328 331 329 326 324 318 312 312
331 331 331 330 328 327 327 323 320 324 326 329 333 334 336 336 335 334 333 333 332 332 332 331 330 330 330 324 321 328 332 332 331 328 327 328 328 327 327 326 326 326 327 327 326 324 323 325 326 328 331 334 332 330 330 332 331 327 324 320 314 313
330 330 330 331 329 328 326 322 322 328 329 331 333 334 335 335 334 334 333 332 331 332 333 331 331 332 330 327 326 329 330 329 330 328 326 328 328 328 328 327 326 326 327 327 327 326 326 326 327 329 332 333 332 332 332 332 331 328 324 321 317 315
330 330 331 331 330 328 324 323 326 329 331 331 333 333 333 334 333 332 332 330 330 333 333 332 333 333 331 329 329 329 327 326 328 326 324 327 329 328 328 328 327 327 327 329 330 328 326 327 327 329 331 332 333 332 332 332 331 328 324 323 320 318
330 330 333 331 330 328 324 324 326 327 329 331 332 331 332 333 332 332 331 330 331 333 332 332 333 334 333 331 331 330 328 326 326 324 324 326 327 327 328 328 327 327 328 330 331 329 329 330 329 329 330 333 334 332 331 332 332 329 324 324 323 320
331 331 334 332 330 327 326 326 326 326 327 329 331 330 331 331 331 332 331 330 331 331 331 331 332 333 333 332 332 331 330 329 327 325 323 324 324 326 327 328 327 327 329 328 329 331 333 332 331 331 331 333 334 332 332 331 332 330 324 322 324 322
332 332 334 334 331 328 330 329 328 328 327 329 330 330 332 331 331 332 330 329 330 331 331 331 332 332 333 332 332 332 330 328 327 325 324 323 322 323 324 327 327 326 328 328 329 332 333 332 332 331 330 332 333 332 331 330 329 328 324 321 323 323
333 334 334 335 333 331 333 332 331 330 329 331 331 331 333 331 331 332 330 329 330 331 331 331 332 332 332 332 332 330 327 326 325 324 325 323 321 324 325 325 326 326 328 329 331 332 332 333 332 331 331 331 333 333 331 328 326 325 325 324 324 324
335 336 336 336 334 332 334 334 333 332 331 332 332 332 332 332 332 332 330 329 331 331 330 330 331 331 331 331 330 329 328 327 327 326 329 327 324 328 329 326 326 328 331 332 332 333 333 333 331 331 332 332 333 333 330 327 325 325 326 327 327 326
338 338 338 338 335 333 335 335 334 333 333 333 333 332 332 333 333 332 331 330 331 331 330 330 330 331 332 332 331 331 331 331 331 331 332 332 329 332 332 330 330 331 333 333 333 332 332 331 330 331 331 331 332 330 328 327 326 325 325 326 328 327
340 339 338 338 336 335 337 337 335 335 334 334 334 333 332 333 332 332 332 331 332 332 331 329 329 332 333 333 333 333 332 331 333 332 333 334 333 333 332 331 332 332 332 331 332 331 330 329 330 331 329 329 330 329 328 328 326 325 324 326 327 328
341 339 338 339 337 337 337 337 337 336 336 335 334 332 332 332 331 331 332 331 332 332 330 329 332 334 334 334 334 334 332 330 331 331 331 332 332 331 330 329 329 329 329 328 329 330 330 331 331 330 329 328 328 329 329 328 327 326 326 326 326 327
341 340 339 338 337 338 338 337 337 336 336 335 334 333 332 332 331 332 331 331 332 331 329 329 332 334 334 334 333 332 329 326 329 331 330 330 331 330 330 331 327 327 329 329 330 331 331 331 331 330 329 328 328 328 329 328 329 328 326 327 326 327
341 340 339 338 338 339 338 337 335 334 335 335 334 332 331 332 332 331 331 331 332 331 329 329 331 332 333 332 332 331 327 326 329 331 330 331 332 331 332 332 328 327 329 330 330 331 331 331 330 330 330 330 329 328 328 327 329 329 327 327 327 327
340 340 339 338 338 338 338 336 334 333 335 334 332 332 332 331 332 331 331 331 331 330 330 330 330 331 331 331 331 332 330 329 330 330 330 331 331 331 332 332 328 328 330 330 330 330 330 330 330 330 330 331 330 328 328 328 329 328 328 329 328 327
340 340 338 338 338 338 337 335 333 334 334 333 332 333 333 332 332 332 332 331 331 330 329 329 330 330 331 330 328 330 332 331 330 330 330 330 330 330 333 332 329 330 331 331 330 331 331 330 330 330 330 331 330 329 329 329 328 326 326 328 329 327
340 339 338 339 338 338 337 333 333 334 333 333 334 334 333 333 332 331 332 332 330 330 328 328 329 329 330 329 325 328 333 332 330 330 329 329 330 330 333 332 329 331 332 331 330 331 331 330 330 329 329 331 330 329 329 329 328 326 325 327 328 328
339 338 338 339 338 337 337 335 334 335 334 334 334 334 333 332 332 332 332 331 330 330 329 328 329 328 328 327 328 331 332 331 330 329 328 329 329 330 333 332 330 331 332 332 331 331 330 329 329 329 329 330 329 329 329 329 328 326 325 327 328 328
336 338 339 338 337 336 337 335 335 335 335 334 333 333 334 333 333 333 332 331 331 330 330 329 328 326 326 326 330 333 332 331 330 328 328 329 329 329 331 332 331 332 332 332 332 331 330 330 329 329 329 329 329 329 329 329 328 328 327 327 328 328
338 339 338 336 334 335 336 335 335 335 334 333 333 333 334 334 333 333 333 332 331 330 329 328 329 327 326 328 332 334 332 331 329 328 329 329 329 330 331 332 331 331 331 331 331 331 331 330 328 328 329 328 327 328 329 328 328 328 327 327 327 328
340 338 335 331 332 333 334 334 333 333 332 332 333 333 333 333 333 333 332 331 330 330 328 327 329 329 329 330 331 333 333 331 329 329 329 329 330 331 332 331 330 329 330 330 330 332 331 330 329 328 328 328 328 328 328 328 327 327 327 327 326 327
337 335 331 330 331 330 331 331 331 332 332 332 333 332 333 333 333 333 332 331 330 329 329 329 329 329 330 330 330 332 333 331 329 329 330 330 331 331 331 331 329 328 329 331 331 331 331 330 329 328 327 328 328 328 328 328 327 327 327 326 326 326
336 334 331 332 332 329 329 331 333 333 332 332 332 332 333 333 333 334 334 333 331 329 330 331 330 329 330 329 329 331 332 331 330 329 330 331 331 330 330 329 329 328 329 330 331 331 331 330 329 328 327 328 328 327 328 328 328 327 326 326 325 325
334 333 334 333 333 332 331 333 333 333 332 332 332 332 332 332 332 334 334 334 332 330 331 331 331 330 330 330 329 331 332 331 330 329 330 331 330 331 330 329 329 329 329 329 330 330 331 330 329 329 328 328 328 328 328 327 327 328 327 326 325 324
329 330 335 335 334 333 332 333 333 333 331 331 332 332 332 332 332 332 333 334 333 332 331 331 331 329 329 330 328 328 330 332 331 329 330 331 330 330 330 329 329 330 330 330 330 331 330 329 330 329 328 328 328 328 328 326 327 327 327 326 325 324
326 327 333 334 335 334 332 332 333 333 331 329 331 332 332 332 332 332 332 332 332 332 330 329 329 328 328 329 328 325 326 330 331 330 330 331 330 330 330 330 330 330 330 330 330 331 329 328 329 329 329 329 328 328 328 326 326 326 326 326 325 325
326 326 329 331 333 333 333 333 332 333 332 330 331 332 332 332 332 332 331 332 331 330 328 327 327 328 329 330 330 327 325 328 331 330 331 330 329 330 331 331 331 330 330 329 330 331 329 327 328 328 329 329 327 328 328 327 326 325 325 325 326 326
326 326 327 329 331 331 332 331 330 330 330 329 330 332 332 332 331 331 331 331 331 329 327 326 328 330 331 331 330 328 327 329 331 331 331 330 329 330 331 331 331 331 329 329 329 330 329 327 326 326 328 327 326 327 328 327 327 326 324 325 326 326
327 327 327 327 327 328 329 329 328 327 324 323 325 328 331 332 330 330 331 331 331 329 326 326 330 331 331 330 329 328 329 330 330 330 331 329 329 331 331 331 332 331 329 328 329 329 329 328 326 326 326 326 326 327 328 328 327 327 325 324 325 325
330 328 327 327 326 327 327 328 326 323 320 319 320 323 328 330 330 329 330 331 330 328 326 328 330 330 329 329 329 328 330 330 330 330 331 330 330 330 330 331 331 331 330 329 329 328 328 328 327 326 326 327 326 326 326 327 327 327 327 325 324 325
331 330 328 327 327 328 327 325 323 323 324 322 319 321 326 328 329 329 328 328 327 326 327 328 328 328 329 330 328 329 330 331 330 330 330 331 331 330 330 330 330 331 330 329 329 328 327 328 328 327 327 328 327 326 326 326 326 327 327 327 325 325
332 331 328 327 329 330 327 324 324 327 329 329 323 321 326 327 327 328 327 326 326 325 325 326 328 330 330 329 328 330 331 330 331 331 330 330 331 331 331 330 329 330 329 328 328 327 327 327 327 327 327 328 327 327 327 327 327 327 327 327 326 325
333 332 330 328 329 329 328 328 329 329 328 330 330 326 327 327 326 328 327 325 324 324 325 327 329 330 328 327 328 330 329 330 331 331 330 330 331 331 330 330 329 329 328 327 328 327 327 327 327 327 328 328 327 327 328 328 327 327 327 327 327 327
335 333 332 331 331 331 331 331 332 329 327 329 331 330 329 327 327 327 325 324 323 324 327 328 329 329 327 326 327 326 326 328 329 329 330 330 330 330 330 330 329 328 327 328 328 327 327 326 326 327 328 328 326 326 328 328 327 327 327 327 327 327
335 335 333 333 332 333 333 331 331 329 328 329 331 331 330 327 327 327 324 323 323 324 326 326 327 328 325 324 324 323 323 325 326 328 329 328 329 329 330 329 328 328 328 328 328 327 327 326 326 327 326 326 326 326 326 327 327 327 327 327 327 327
334 334 334 332 332 333 333 331 330 330 330 330 331 331 330 328 328 327 324 323 324 326 327 326 327 327 323 322 322 322 324 324 325 327 328 328 328 329 329 328 328 327 327 327 328 327 327 327 327 327 326 325 325 326 326 326 327 327 327 327 327 327
Wind_Speed
23 22 22 21 21 20 19 18 17 17 17 17 16 16 17 18 17 16 15 15 14 13 11 10 10 9 9 11 14 15 13 12 10 9 11 12 13 13 12 13 13 13 13 14 15 15 17 18 17 17 15 11 6 2 4 6 7 8 9 7 7 7
24 23 22 22 21 21 20 19 18 18 18 17 17 17 18 19 17 16 15 15 14 13 11 10 9 9 9 10 14 15 13 12 10 9 11 12 13 13 12 12 13 13 13 13 14 15 16 15 14 14 14 12 5 1 5 7 8 9 10 8 6 6
23 23 23 22 22 22 21 20 20 20 19 18 18 18 19 18 17 16 16 15 14 12 11 9 9 9 9 10 14 15 14 12 10 10 11 13 13 13 12 13 13 13 13 12 13 14 13 12 11 12 14 12 5 1 4 5 7 10 12 8 6 5
23 24 24 22 22 22 22 21 21 20 19 19 18 18 18 17 17 17 16 15 13 11 10 10 10 10 10 12 14 15 13 12 11 10 12 15 14 13 13 13 13 12 12 12 11 11 11 10 9 12 14 11 5 3 1 2 4 8 12 9 6 5
24 25 24 23 23 22 22 22 21 20 19 18 17 17 17 17 18 17 16 14 12 12 11 11 11 11 10 12 13 12 12 12 12 11 12 15 15 14 13 13 13 12 12 10 9 10 10 9 7 9 12 9 5 4 1 1 2 5 10 10 6 5
26 26 24 23 24 23 23 23 22 21 19 19 18 17 17 18 18 16 14 13 13 12 12 11 11 11 10 11 11 10 11 11 12 12 12 15 15 14 13 12 13 12 11 9 8 8 8 6 5 7 11 8 4 3 2 2 2 3 7 10 8 5
28 27 24 23 24 23 23 22 22 22 21 21 19 17 18 17 16 14 13 13 12 12 11 11 11 10 10 10 10 10 11 11 10 11 12 14 14 14 13 12 12 12 10 7 5 4 3 3 5 5 8 8 4 4 4 4 2 3 7 9 8 5
29 27 25 25 25 24 23 23 22 23 23 22 20 18 18 16 14 13 13 13 12 12 12 12 11 11 10 11 10 10 9 9 10 10 11 12 12 12 13 13 12 11 9 7 4 2 1 3 4 4 6 7 5 5 7 7 5 5 8 10 8 4
29 27 26 26 25 24 23 24 23 24 24 22 21 19 17 16 15 15 14 14 13 12 12 13 12 11 11 11 10 9 9 10 11 11 11 11 12 10 10 12 11 10 9 7 5 3 5 5 5 6 5 6 6 8 10 11 9 9 7 5 5 2
28 26 26 26 26 25 24 24 24 24 23 21 20 18 16 15 15 16 15 14 14 13 14 14 13 13 12 11 9 8 8 10 10 9 9 10 12 9 8 10 10 10 10 7 6 7 8 7 5 6 7 7 8 10 11 11 10 9 5 2 2 0
28 26 25 25 26 26 25 24 23 22 21 19 19 17 16 16 16 17 16 15 15 14 15 14 14 14 12 10 9 7 7 9 8 6 6 8 10 7 6 8 7 9 11 10 11 10 8 7 6 6 9 10 10 11 10 8 7 6 4 2 0 2
28 27 26 25 25 26 25 24 22 21 20 18 17 16 17 17 17 18 17 16 15 14 15 14 13 13 12 11 10 9 9 10 10 8 8 8 10 10 10 10 11 11 12 12 13 11 7 7 8 8 9 11 11 9 7 6 6 5 5 4 1 2
29 28 27 25 25 26 26 25 23 21 19 17 16 15 16 18 18 18 17 17 15 14 15 15 14 13 14 12 10 10 10 10 11 9 9 10 10 11 11 10 12 13 11 11 12 11 9 8 10 8 7 9 10 9 7 7 7 7 5 4 3 2
29 29 28 26 25 27 28 26 23 20 17 16 16 16 16 18 18 17 17 17 15 15 16 16 15 14 14 12 10 10 11 10 11 10 9 9 8 10 11 10 10 11 10 10 11 12 11 10 11 9 7 9 11 10 9 8 9 8 7 5 5 3
31 30 29 26 26 28 26 21 18 17 16 16 17 17 16 17 18 17 17 18 16 16 15 16 16 14 14 13 10 10 11 11 10 10 9 8 7 9 11 10 9 9 10 11 11 11 11 11 11 10 9 10 11 10 9 10 10 9 8 7 7 6
31 31 29 27 27 27 22 17 15 16 17 17 17 17 17 16 17 17 18 18 16 16 15 15 17 16 16 14 11 10 10 10 10 10 10 9 9 10 10 9 9 9 10 11 11 9 9 9 8 8 8 9 10 10 10 10 10 9 9 8 8 7
31 30 28 27 27 25 21 17 15 16 18 18 17 17 18 17 17 17 17 16 17 18 17 17 17 17 17 15 13 12 11 11 11 11 10 10 10 10 10 9 9 9 8 10 10 9 9 7 7 7 7 8 9 10 12 11 10 9 9 9 9 8
30 26 25 28 28 23 19 17 16 18 18 19 18 18 19 18 18 18 16 16 17 19 18 18 17 17 17 16 14 14 12 11 10 11 10 11 11 10 10 9 8 8 7 7 8 8 9 8 8 8 7 8 8 9 11 10 9 9 9 9 10 9
27 24 25 28 24 17 16 18 19 20 19 19 20 19 19 18 18 18 16 16 17 18 18 17 17 17 16 16 16 15 13 12 11 10 10 11 12 11 10 9 8 8 7 7 7 8 9 9 9 8 8 9 7 7 8 8 8 9 9 9 11 11
24 25 27 22 17 15 17 19 20 19 20 19 19 19 19 19 19 18 16 16 17 17 17 16 17 17 17 16 16 14 13 13 11 10 10 10 11 11 10 9 8 9 9 8 7 9 10 10 10 9 9 9 8 7 7 7 8 9 9 10 11 11
26 27 23 17 13 15 17 18 18 17 18 18 18 20 21 20 19 17 16 16 16 17 16 15 17 18 18 17 14 13 13 12 11 10 10 10 12 11 10 10 10 10 9 8 8 9 10 10 11 12 12 10 9 8 8 8 8 8 9 10 10 10
27 24 17 14 13 14 15 15 15 14 15 17 19 21 20 19 18 16 16 15 13 15 15 15 16 15 17 18 15 14 13 11 10 10 10 11 12 12 11 12 12 11 10 9 8 9 10 11 10 10 12 13 11 10 9 8 8 7 8 9 9 11
23 20 15 15 15 14 14 13 13 14 15 16 18 19 18 17 17 16 16 15 13 14 14 14 15 15 17 18 17 16 14 12 11 10 11 12 13 12 11 12 12 12 11 10 10 10 10 11 10 11 13 14 13 12 10 8 8 8 8 9 10 11
18 17 16 18 18 16 16 17 17 17 16 15 16 18 18 18 17 16 16 15 14 14 14 15 16 16 18 18 18 18 14 12 11 11 12 12 12 11 11 12 13 13 12 11 12 12 12 11 11 12 13 14 14 14 13 12 12 11 10 11 11 11
14 12 17 21 21 18 18 20 20 19 17 16 17 19 20 20 20 19 18 17 16 16 15 17 18 18 19 19 19 18 16 14 11 11 13 12 11 11 11 12 13 13 12 12 12 13 14 12 11 12 12 13 13 12 13 16 15 12 11 12 12 11
11 10 18 22 21 19 18 18 18 19 18 18 21 22 21 21 21 20 19 19 19 18 18 18 19 19 19 19 18 17 16 15 12 12 13 12 11 11 11 13 13 13 12 12 11 12 14 14 14 13 12 12 10 9 14 18 17 14 12 12 12 12
13 14 20 22 22 21 20 18 17 18 17 17 20 22 20 20 20 19 19 20 21 20 19 19 19 18 18 18 16 15 15 14 13 13 13 12 12 11 12 13 13 13 12 12 11 12 14 15 16 16 13 11 9 8 13 16 16 17 17 14 13 13
17 20 22 22 23 23 23 22 20 20 18 17 19 21 20 19 20 20 19 21 21 20 19 19 18 17 17 16 15 15 15 14 14 14 13 12 12 12 13 13 13 12 12 12 11 12 13 15 16 16 15 12 8 9 12 13 12 14 19 19 15 14
18 21 23 23 25 24 24 23 22 21 19 16 17 20 21 20 21 21 21 22 21 21 20 19 18 18 17 15 14 14 15 15 14 13 13 14 14 14 14 13 12 12 13 13 12 12 12 14 15 15 16 14 10 11 13 13 11 11 15 20 18 17
19 22 23 23 25 25 25 25 24 21 17 13 13 17 21 22 22 22 23 24 23 22 21 19 20 19 17 15 15 14 15 15 14 13 14 14 14 15 14 13 12 12 11 11 12 12 11 13 15 15 16 14 12 14 15 16 16 14 15 17 18 19
21 24 25 26 28 28 27 26 25 20 14 12 14 19 23 26 25 24 24 26 25 23 21 20 21 19 17 17 16 15 14 15 14 13 13 13 14 15 14 13 13 12 10 9 10 12 12 13 15 16 15 13 12 14 15 17 17 16 16 16 18 21
25 27 27 29 30 29 29 27 25 23 21 18 17 20 25 27 27 26 26 26 25 23 22 21 20 19 18 19 18 15 14 15 15 14 13 13 13 13 13 12 13 12 11 10 10 12 13 14 15 16 15 13 12 13 13 14 15 15 14 14 18 22
27 27 25 27 28 28 29 27 26 30 29 25 21 20 23 26 26 27 26 25 25 23 22 22 21 20 20 19 17 15 16 16 16 15 14 13 12 12 12 12 12 12 11 11 12 12 12 13 13 14 15 15 14 14 14 14 15 16 14 13 18 22
26 23 22 25 26 28 31 30 32 32 28 25 26 24 23 24 24 25 25 24 24 22 21 22 22 22 20 18 17 16 16 17 16 16 15 13 12 12 13 13 12 12 11 11 11 11 11 13 13 14 16 16 14 15 15 14 15 17 16 15 18 21
24 19 19 24 27 29 33 34 35 33 26 23 27 26 24 23 23 24 23 22 22 21 21 22 21 21 19 18 18 17 15 16 16 16 14 13 12 12 13 12 12 11 11 11 12 11 11 13 13 14 16 15 13 14 15 13 13 16 16 14 15 19
22 19 20 23 27 32 35 36 35 32 26 23 25 26 25 23 22 22 21 21 21 21 21 21 20 19 18 18 17 16 15 15 15 14 13 12 12 12 12 11 10 11 11 11 12 12 12 13 12 13 15 14 13 13 15 14 13 15 15 13 14 18
23 23 24 25 29 34 36 36 35 31 26 22 23 25 25 23 22 21 20 20 20 21 21 21 20 18 17 17 16 16 15 14 14 14 13 12 12 12 12 11 10 10 10 11 11 12 13 12 12 12 13 13 13 13 14 15 15 15 17 16 16 18
Wind_Direction
159 159 158 156 156 156 159 163 167 169 173 175 172 173 173 170 170 170 172 170 168 168 167 168 158 151 154 154 165 172 168 163 161 168 174 169 162 156 151 142 133 125 116 117 127 134 133 127 120 115 109 99 92 98 77 33 17 27 30 40 47 55
166 165 164 161 158 157 160 164 168 171 174 174 171 173 174 173 175 176 176 172 171 172 171 173 164 161 162 158 165 170 170 166 163 168 174 173 166 159 155 149 141 132 123 116 118 125 127 122 116 114 105 97 99 40 41 20 12 23 20 31 52 62
171 169 167 165 162 161 162 165 169 172 172 172 172 174 175 178 180 180 178 173 175 177 176 173 165 165 161 155 162 169 174 169 167 169 170 174 169 162 159 156 151 142 134 128 125 127 125 122 115 111 105 110 136 75 35 3 6 18 14 25 49 54
173 172 172 170 168 166 164 167 170 170 171 172 173 175 178 182 183 183 180 176 182 183 176 169 163 164 158 156 161 170 180 176 174 172 169 174 171 164 162 161 158 149 142 136 135 134 128 125 113 112 117 119 129 113 75 339 9 19 17 25 44 45
179 179 177 174 172 169 168 168 169 168 171 173 173 176 181 185 187 188 185 185 189 186 178 171 167 167 161 158 159 164 175 176 178 175 168 174 174 170 167 164 158 151 148 140 141 146 134 130 118 122 133 130 131 143 175 307 348 9 14 12 22 42
187 184 179 176 175 172 171 170 169 170 171 173 175 181 185 189 192 192 194 194 192 189 184 178 173 171 164 158 155 152 159 167 176 175 169 172 175 175 172 168 161 156 156 149 155 155 130 132 137 134 148 149 150 165 202 252 286 355 9 358 358 23
190 184 178 177 177 174 172 171 170 171 172 174 176 183 190 194 197 197 199 197 193 192 188 184 179 175 169 162 159 155 154 160 166 172 173 173 174 176 178 175 168 164 164 166 169 146 104 158 173 155 157 158 164 187 211 241 278 350 349 333 332 353
190 185 179 178 179 177 174 172 173 174 175 176 176 183 191 194 197 200 200 196 195 195 190 187 180 176 172 165 166 162 157 159 157 160 168 173 175 176 179 178 173 172 171 171 164 142 239 225 193 186 172 163 178 208 219 232 255 310 315 300 295 322
191 187 183 182 181 178 175 174 176 178 178 177 177 181 187 190 195 201 200 194 196 197 191 188 179 174 171 164 167 166 156 156 152 144 148 165 167 155 165 171 165 168 165 148 147 207 238 231 195 192 184 173 193 218 226 236 261 288 292 270 258 304
191 189 187 184 182 180 179 179 180 180 180 180 180 179 181 188 196 202 201 195 196 197 192 190 180 170 165 164 166 159 141 140 144 136 132 150 153 138 152 167 156 155 155 146 168 211 234 236 210 195 195 191 203 223 237 253 272 278 265 223 208 37
190 190 188 186 185 184 183 183 182 183 184 184 184 180 181 191 199 200 200 197 197 197 193 193 185 169 161 165 164 155 142 140 149 156 147 146 151 156 175 178 175 166 163 172 186 198 222 234 227 216 211 207 212 228 247 260 265 254 227 227 248 80
190 190 189 189 187 187 186 183 182 185 184 186 188 184 185 193 198 197 199 201 199 198 195 195 190 171 165 176 174 171 169 159 162 175 179 170 165 183 197 194 200 198 185 188 192 194 206 218 225 227 220 218 219 228 243 244 243 238 224 240 258 102
191 190 191 191 188 188 187 182 182 182 180 188 191 188 191 192 194 196 200 204 202 199 195 194 192 176 173 184 185 189 190 175 172 180 189 191 185 192 202 195 197 198 189 187 192 194 197 208 225 229 220 225 224 218 221 221 220 224 224 228 229 181
191 191 191 191 191 190 188 181 177 177 179 191 193 190 193 192 195 198 199 203 203 201 198 196 194 184 182 183 185 199 204 189 182 186 190 196 194 190 192 190 189 189 176 176 188 197 203 210 224 229 223 229 230 220 211 205 198 203 215 211 212 202
192 190 189 190 191 189 187 180 173 180 185 187 188 187 191 193 196 198 199 203 205 202 200 200 199 195 193 187 182 193 202 196 190 196 196 194 194 185 185 185 183 185 182 184 191 201 207 210 221 228 224 222 226 218 202 201 194 194 211 216 214 201
192 189 187 188 191 189 182 174 174 185 186 183 183 185 188 190 192 192 195 202 205 205 203 202 203 201 197 193 189 190 202 206 199 198 196 194 193 182 182 186 182 184 187 189 192 193 194 201 214 220 218 214 211 200 189 195 195 196 209 216 216 202
190 186 187 188 193 193 177 166 176 181 180 182 185 187 187 187 188 188 194 200 203 207 207 205 206 202 197 196 195 196 204 208 202 198 195 195 193 182 182 190 188 186 191 194 190 188 186 190 202 202 200 201 198 190 188 194 197 202 209 213 216 205
187 184 189 194 195 191 172 161 173 179 178 181 184 190 191 188 189 190 194 199 201 205 208 208 205 203 201 200 200 199 201 203 203 200 196 195 191 185 188 194 194 189 194 194 180 181 183 176 183 182 176 189 198 191 187 196 208 209 204 209 211 198
184 186 191 194 189 176 163 162 169 174 177 180 180 187 192 188 188 191 196 198 197 199 203 205 203 202 203 205 203 196 196 202 200 199 198 195 193 191 192 196 205 198 185 174 160 169 172 163 171 173 169 181 188 186 186 193 206 206 197 199 200 192
185 187 185 182 177 165 164 167 170 171 174 178 180 184 188 189 188 191 196 195 191 194 200 203 202 203 204 208 208 195 195 202 196 198 200 196 196 197 197 202 215 215 197 177 158 165 170 165 167 166 172 182 175 175 187 190 197 202 198 196 196 194
187 183 174 167 173 174 174 173 173 174 175 180 184 186 189 193 194 191 191 193 193 195 198 201 203 204 202 205 210 200 200 203 193 196 196 193 200 199 197 204 213 216 208 193 169 165 169 167 166 165 169 172 166 169 178 183 190 198 197 192 190 189
183 174 164 167 180 185 186 181 180 184 181 182 186 191 194 195 198 194 193 194 196 198 198 202 204 204 202 202 207 206 204 202 193 195 193 191 199 196 192 202 212 207 200 197 181 169 170 171 173 175 171 161 156 162 172 179 175 175 181 180 180 177
170 163 163 174 183 191 196 189 186 189 185 187 191 195 197 196 196 193 196 197 194 199 200 201 202 204 206 205 206 206 205 204 200 200 199 194 196 199 195 198 210 208 194 187 182 173 170 173 174 176 171 161 157 153 149 158 158 158 169 169 171 169
158 163 173 175 182 189 195 190 186 190 192 196 198 200 201 198 195 192 199 202 194 196 197 196 200 205 209 208 206 207 208 210 208 205 205 199 196 204 204 199 204 207 200 192 185 175 169 175 185 185 174 160 157 153 148 155 156 155 166 165 163 162
145 177 184 175 183 190 190 188 186 190 195 198 199 203 204 202 200 197 201 203 198 198 195 194 199 203 207 208 206 209 212 210 209 208 207 203 201 206 205 202 203 202 201 202 195 181 174 178 190 196 184 164 159 165 167 165 158 154 165 165 161 165
148 194 195 183 188 193 192 191 191 193 195 200 201 203 206 206 206 204 203 202 200 199 195 194 199 202 206 207 206 212 215 208 203 208 208 203 204 206 201 201 203 200 195 199 199 188 181 181 184 189 190 181 180 190 182 168 158 156 164 168 165 166
158 172 192 194 193 193 195 197 197 197 199 204 205 205 208 209 209 211 207 201 200 199 197 200 205 206 207 207 204 210 217 209 202 210 209 203 203 202 195 193 198 201 196 195 196 193 188 184 184 186 187 192 197 196 186 176 167 162 162 169 172 167
167 167 183 192 194 197 198 198 196 195 199 206 209 207 207 208 210 212 209 203 201 200 200 202 207 209 208 205 202 207 213 204 200 206 203 199 201 197 192 190 191 196 199 197 194 195 194 187 187 187 184 191 193 174 180 186 181 174 167 165 168 170
175 175 183 187 193 198 199 200 197 191 192 201 209 210 209 208 208 209 208 205 203 201 201 201 203 205 203 201 199 205 204 192 192 201 196 192 193 193 194 191 191 193 195 197 192 190 191 188 191 191 186 191 187 168 175 184 182 187 180 167 166 171
175 174 181 187 192 195 197 199 194 185 182 186 199 208 210 206 204 206 206 205 204 202 202 200 199 199 198 195 193 198 195 184 185 191 188 188 191 194 193 190 195 197 193 194 192 190 189 189 193 194 192 196 191 176 178 183 180 183 186 178 172 171
184 179 182 189 191 190 190 188 187 187 191 201 204 204 205 203 201 202 202 202 203 202 199 196 194 195 194 189 183 183 182 177 182 186 181 183 190 195 192 189 197 198 195 198 195 192 191 191 194 195 195 201 201 192 187 187 183 179 182 183 175 169
193 189 188 194 194 190 185 182 188 200 211 221 218 207 201 199 199 198 195 195 197 197 195 193 192 189 185 181 173 167 168 168 174 178 173 173 181 187 188 194 200 197 198 204 201 196 193 192 194 195 195 196 199 198 193 193 191 184 185 189 179 170
199 193 194 198 196 194 191 190 199 207 214 220 221 212 199 195 196 194 191 190 191 192 192 190 186 180 177 176 170 166 168 168 167 170 173 176 178 178 182 192 198 198 200 204 204 198 194 194 194 194 194 193 193 190 186 192 195 192 192 189 180 171
201 196 199 199 197 198 201 206 210 213 220 221 217 212 197 190 191 190 190 189 188 188 187 183 178 175 174 170 168 172 174 171 169 173 177 180 181 179 179 182 188 194 194 194 199 195 192 197 197 195 195 194 196 189 183 187 192 196 197 187 180 175
202 205 207 202 202 205 209 215 217 219 228 225 216 211 200 191 187 186 186 184 183 181 178 174 172 173 173 167 167 172 172 171 172 174 176 177 180 179 177 178 182 186 181 182 193 194 191 195 195 195 197 203 208 196 188 189 187 192 197 192 187 182
207 211 211 208 211 214 215 219 220 224 230 227 218 212 202 193 187 184 180 178 177 174 172 172 170 171 170 166 169 169 168 172 172 171 173 173 175 177 177 178 178 177 174 177 188 193 191 192 195 199 200 207 213 203 197 198 192 191 196 195 190 184
214 210 210 212 216 220 223 222 222 225 226 226 222 214 202 192 187 184 180 176 173 169 170 171 167 167 168 167 168 169 171 174 171 171 172 170 171 175 179 178 174 174 173 175 182 188 191 194 200 205 202 203 207 206 205 203 199 197 194 192 188 183